Location: New Plymouth
(39.0670°S, 174.0830°E)
Time: 02:58:36
(UTC+13:00)

Cosmos 1862 - Pass Details

Date: 24 January 2019
Orbit: 540 x 556 km, 82.5° (Epoch: 22 February)

Event Time Altitude Azimuth Distance (km) Brightness Sun altitude
Rises 22:23:06 0° 190° (S) 2,754 7.8 -16.4°
Reaches altitude 10° 22:25:17 10° 191° (S) 1,848 6.8 -16.7°
Maximum altitude 22:29:21 75° 276° (W) 576 3.4 -17.2°
Enters shadow 22:31:31 26° 357° (N) 1,100 4.5 -17.5°
